Regional Weather Roundup
Issued by NWS

Home | Current Version | Previous Version | Text Only | Print | Product List | Glossary Off
Versions: 1 2 3 4 5 6 7 8 9 10 11 12 13 14 15 16 17 18 19 20 21 22 23 24 25 26 27 28 29 30 31 32 33 34 35 36 37 38 39 40 41 42 43 44 45 46 47 48 49 50

000
ASUS43 KLMK 041810
RWRKY
KENTUCKY REGIONAL WEATHER ROUNDUP
NATIONAL WEATHER SERVICE LOUISVILLE KY
200 PM EDT TUE AUG 04 2015

NOTE "FAIR" INDICATES FEW OR NO CLOUDS BELOW 12,000 FEET
WITH NO SIGNIFICANT WEATHER AND/OR OBSTRUCTIONS TO VISIBILITY.

KYZ001>023-026-027-061>063-070>075-041900-
WESTERN AND SOUTH CENTRAL KENTUCKY

CITY           SKY/WX    TMP DP  RH WIND       PRES   REMARKS
PADUCAH        MOSUNNY   93  73  52 SW8       29.98S HX 102
HENDERSON      MOSUNNY   91  73  55 W3        29.96F HX 100
OWENSBORO      MOSUNNY   91  75  59 W8        29.99S HX 101
HOPKINSVILLE   SUNNY     92  72  52 SW8       30.00S HX  99
BOWLING GREEN  MOSUNNY   92  71  50 SW14      30.00F HX  98
GLASGOW        MOSUNNY  N/A N/A N/A W7        30.01S
$$

KYZ024-025-028>034-038-045-046-053-041900-
NORTH CENTRAL KENTUCKY

CITY           SKY/WX    TMP DP  RH WIND       PRES   REMARKS
LOUISVILLE/SDF CLOUDY    88  68  51 VRB7      29.99S HX  91
LOUISVILLE/LOU CLOUDY    87  66  49 W10       30.00S
FORT KNOX      MOSUNNY   87  70  56 NW10      30.00S HX  91
$$

KYZ035>037-039>044-047>052-055>060-089>105-041900-
NORTHEAST KENTUCKY

CITY           SKY/WX    TMP DP  RH WIND       PRES   REMARKS
LEXINGTON      CLOUDY    84  69  60 W10       30.02S
COVINGTON      PTSUNNY   83  57  41 W9        29.99F
FRANKFORT      CLOUDY    84  67  56 W7        30.00F
$$

KYZ054-064>069-076>088-106>120-041900-
SOUTHEAST KENTUCKY

CITY           SKY/WX    TMP DP  RH WIND       PRES   REMARKS
JACKSON        PTSUNNY   82  72  71 CALM      30.04F
LONDON         MOSUNNY   88  67  49 W8        30.03F HX  91
SOMERSET       PTSUNNY   88  68  51 SW8G17    30.03F HX  91
MIDDLESBORO    MOSUNNY   89  68  50 SW5       30.04F HX  93
MONTICELLO     PTCLDY    90  72  55 CALM      30.05F HX  97
$$




USA.gov is the U.S. government's official web portal to all federal, state and local government web resources and services.